FLOCK 2E-2 (41484 NORAD) Tracking and Keplerian Element Data

This shows tracking and keplerian element data for the satellite.

Feedback or suggestion? Click here.




ElementValue
Catalog41484
NameFLOCK 2E-2
Epoch Orbit9660
Epoch Day23.855664
Epoch Year2018
RAAN312.5354
Inclination51.6059
Eccentricity0.0003784
Argument of Perigee256.0915
Mean Anonmoly104.51
Mean Motion16.43905394
Decay Rate0.18749729
L11 41484U 98067JE 18023.85566400 .18749729 12492-4 73737-3 0 9998
L22 41484 51.6059 312.5354 0003784 256.0915 104.5100 16.43905394 96608

Live tracking and technical data element details for FLOCK 2E-2 (NORAD 41484). FLOCK 2E-2 can be tracked NOW for your location showing map with azimuth and elevation plus other details from your city location.

Track the satellite on the map from your city or location and see movement details for azimuth, elevation, latitude, longitude, range, height, and movement on the map or in text.







IsCatalogInMostPopularTable: catalog: 41484, numindb: 79
Update: records affected: 1



GetName: 41484 FLOCK 2E-2

Hit Count: updated at: Mon, 20 Aug 2018 00:44:53 GMT